| time (UTC) | temp F | wind direction | speed knots | gust knots | rain 1hr in | rain 24hr in | rain mn in | humidity % | barometer mb |
| 20260506014524 | 42 | 74 | 0.0 | 7.0 | 0.00 | 0.00 | 0.00 | 46 | 1017.1 |
| 20260506013037 | 41 | 360 | 2.6 | 12.2 | 0.00 | 0.00 | 0.00 | 45 | 1017.0 |
| 20260506011510 | 40 | 31 | 0.9 | 6.1 | 0.00 | 0.00 | 0.00 | 49 | 1017.0 |
| 20260506010021 | 40 | 352 | 2.6 | 6.1 | 0.00 | 0.00 | 0.00 | 48 | 1016.7 |
| 20260506004520 | 41 | 40 | 3.5 | 9.6 | 0.00 | 0.00 | 0.00 | 47 | 1016.6 |
| 20260506003033 | 41 | 134 | 1.7 | 12.2 | 0.00 | 0.00 | 0.00 | 50 | 1016.6 |
| 20260506001527 | 42 | 48 | 3.5 | 9.6 | 0.00 | 0.00 | 0.00 | 48 | 1016.3 |
| 20260506000013 | 42 | 80 | 1.7 | 7.8 | 0.00 | 0.00 | 0.00 | 47 | 1016.3 |
| 20260505234517 | 44 | 69 | 5.2 | 9.6 | 0.00 | 0.00 | 0.00 | 44 | 1016.2 |
| 20260505233021 | 45 | 39 | 0.9 | 3.5 | 0.00 | 0.00 | 0.00 | 44 | 1016.1 |
| 20260505231525 | 45 | 67 | 0.0 | 3.5 | 0.00 | 0.00 | 0.00 | 43 | 1016.0 |
| 20260505230041 | 46 | 342 | 4.3 | 9.6 | 0.00 | 0.00 | 0.00 | 37 | 1015.9 |
| 20260505224515 | 46 | 352 | 2.6 | 13.0 | 0.00 | 0.00 | 0.00 | 39 | 1015.9 |
| 20260505223020 | 48 | 267 | 2.6 | 13.0 | 0.00 | 0.00 | 0.00 | 36 | 1015.8 |
| 20260505221528 | 47 | 298 | 7.0 | 9.6 | 0.00 | 0.00 | 0.00 | 37 | 1015.7 |
| 20260505220026 | 47 | 21 | 3.5 | 10.4 | 0.00 | 0.00 | 0.00 | 40 | 1015.9 |
| 20260505214527 | 46 | 326 | 5.2 | 12.2 | 0.00 | 0.00 | 0.00 | 41 | 1015.8 |
| 20260505213021 | 46 | 307 | 5.2 | 19.1 | 0.00 | 0.00 | 0.00 | 40 | 1015.6 |
| 20260505211505 | 48 | 287 | 3.5 | 8.7 | 0.00 | 0.00 | 0.00 | 42 | 1015.9 |
| 20260505210006 | 48 | 321 | 2.6 | 6.1 | 0.00 | 0.00 | 0.00 | 40 | 1016.1 |
| 20260505204511 | 47 | 39 | 0.9 | 7.8 | 0.00 | 0.00 | 0.00 | 43 | 1016.1 |
| 20260505203014 | 48 | 340 | 1.7 | 7.8 | 0.00 | 0.00 | 0.00 | 40 | 1016.1 |
| 20260505201514 | 47 | 341 | 4.3 | 7.0 | 0.00 | 0.00 | 0.00 | 45 | 1016.3 |
| 20260505200013 | 45 | 79 | 2.6 | 8.7 | 0.00 | 0.00 | 0.00 | 44 | 1016.4 |
| 20260505194511 | 44 | 22 | 2.6 | 9.6 | 0.00 | 0.00 | 0.00 | 49 | 1016.4 |
| 20260505193013 | 45 | 52 | 5.2 | 9.6 | 0.00 | 0.00 | 0.00 | 47 | 1016.6 |
| 20260505191518 | 45 | 345 | 2.6 | 8.7 | 0.00 | 0.00 | 0.00 | 46 | 1016.6 |
| 20260505190014 | 44 | 342 | 3.5 | 7.8 | 0.00 | 0.00 | 0.00 | 46 | 1016.6 |
| 20260505184508 | 45 | 352 | 2.6 | 5.2 | 0.00 | 0.00 | 0.00 | 49 | 1016.6 |
| 20260505183010 | 45 | 360 | 1.7 | 3.5 | 0.00 | 0.00 | 0.00 | 50 | 1016.8 |
| 20260505181518 | 43 | 325 | 2.6 | 7.0 | 0.00 | 0.00 | 0.00 | 53 | 1016.8 |
| 20260505180018 | 42 | 232 | 4.3 | 10.4 | 0.00 | 0.00 | 0.00 | 51 | 1016.8 |
| 20260505174518 | 44 | 344 | 1.7 | 7.0 | 0.00 | 0.00 | 0.00 | 52 | 1016.7 |
| 20260505173032 | 42 | 19 | 0.0 | 7.0 | 0.00 | 0.00 | 0.00 | 49 | 1016.6 |
| 20260505171513 | 43 | 231 | 3.5 | 6.1 | 0.00 | 0.00 | 0.00 | 50 | 1016.6 |
| 20260505170024 | 42 | 236 | 2.6 | 5.2 | 0.00 | 0.00 | 0.00 | 50 | 1016.7 |
| 20260505164543 | 42 | 173 | 1.7 | 4.3 | 0.00 | 0.00 | 0.00 | 50 | 1016.8 |
| 20260505163021 | 42 | 227 | 0.9 | 3.5 | 0.00 | 0.00 | 0.00 | 54 | 1016.8 |
| 20260505161511 | 41 | 212 | 1.7 | 4.3 | 0.00 | 0.00 | 0.00 | 57 | 1016.7 |
| 20260505153026 | 39 | 272 | 0.0 | 3.5 | 0.00 | 0.00 | 0.00 | 58 | 1016.8 |
| 20260505151522 | 39 | 290 | 1.7 | 3.5 | 0.00 | 0.00 | 0.00 | 56 | 1016.9 |
| 20260505124528 | 31 | 326 | 0.0 | 3.5 | 0.00 | 0.00 | 0.00 | 71 | 1016.1 |
| 20260505123017 | 31 | 249 | 0.9 | 1.7 | 0.00 | 0.00 | 0.00 | 71 | 1015.8 |
| 20260505121506 | 31 | 227 | 2.6 | 4.3 | 0.00 | 0.00 | 0.00 | 70 | 1015.7 |
| 20260505120008 | 33 | 82 | 0.0 | 1.7 | 0.00 | 0.00 | 0.00 | 67 | 1015.6 |
| 20260505114527 | 33 | 88 | 1.7 | 2.6 | 0.00 | 0.00 | 0.00 | 66 | 1015.5 |
| 20260505113016 | 33 | 82 | 1.7 | 2.6 | 0.00 | 0.00 | 0.00 | 67 | 1015.4 |
| 20260505111518 | 34 | 135 | 2.6 | 3.5 | 0.00 | 0.00 | 0.00 | 64 | 1015.5 |
| 20260505101521 | 36 | 91 | 1.7 | 3.5 | 0.00 | 0.00 | 0.00 | 61 | 1015.9 |
| 20260505100029 | 36 | 88 | 1.7 | 2.6 | 0.00 | 0.00 | 0.00 | 60 | 1015.9 |
| 20260505094506 | 36 | 90 | 1.7 | 3.5 | 0.00 | 0.00 | 0.00 | 61 | 1015.8 |
| 20260505093010 | 36 | 80 | 1.7 | 2.6 | 0.00 | 0.00 | 0.00 | 63 | 1015.8 |
| 20260505091516 | 37 | 113 | 0.9 | 2.6 | 0.00 | 0.00 | 0.00 | 63 | 1015.8 |
| 20260505090031 | 37 | 99 | 0.9 | 2.6 | 0.00 | 0.00 | 0.00 | 63 | 1016.1 |
| 20260505084530 | 37 | 117 | 0.9 | 3.5 | 0.00 | 0.00 | 0.00 | 64 | 1016.1 |
| 20260505083009 | 36 | 137 | 1.7 | 5.2 | 0.00 | 0.00 | 0.00 | 66 | 1016.1 |
| 20260505081514 | 37 | 108 | 2.6 | 2.6 | 0.00 | 0.00 | 0.00 | 65 | 1016.2 |
| 20260505080028 | 37 | 121 | 0.0 | 1.7 | 0.00 | 0.00 | 0.00 | 64 | 1016.3 |
| 20260505074521 | 37 | 131 | 1.7 | 1.7 | 0.00 | 0.00 | 0.00 | 66 | 1016.2 |
| 20260505073024 | 38 | 184 | 0.0 | 4.3 | 0.00 | 0.00 | 0.00 | 66 | 1016.2 |
| 20260505071519 | 37 | 126 | 2.6 | 5.2 | 0.00 | 0.00 | 0.00 | 67 | 1016.1 |
| 20260505070020 | 37 | 121 | 3.5 | 5.2 | 0.00 | 0.00 | 0.00 | 68 | 1016.1 |
| 20260505064520 | 38 | 126 | 1.7 | 3.5 | 0.00 | 0.00 | 0.00 | 68 | 1016.1 |
| 20260505063033 | 39 | 109 | 1.7 | 3.5 | 0.00 | 0.00 | 0.00 | 67 | 1016.1 |
| 20260505061531 | 39 | 95 | 2.6 | 5.2 | 0.00 | 0.00 | 0.00 | 65 | 1016.1 |
| 20260505060013 | 40 | 88 | 0.9 | 3.5 | 0.00 | 0.00 | 0.00 | 61 | 1016.1 |
| 20260505054522 | 41 | 121 | 0.0 | 1.7 | 0.00 | 0.00 | 0.00 | 61 | 1016.0 |
| 20260505053022 | 41 | 83 | 0.9 | 2.6 | 0.00 | 0.00 | 0.00 | 60 | 1015.9 |
| 20260505051523 | 42 | 241 | 0.0 | 1.7 | 0.00 | 0.00 | 0.00 | 59 | 1015.9 |
| 20260505041524 | 43 | 168 | 2.6 | 7.0 | 0.00 | 0.00 | 0.00 | 61 | 1015.6 |
| 20260505040026 | 43 | 134 | 3.5 | 7.0 | 0.00 | 0.00 | 0.00 | 61 | 1015.4 |
| 20260505034526 | 44 | 162 | 5.2 | 7.8 | 0.00 | 0.00 | 0.00 | 60 | 1015.2 |
| 20260505033030 | 45 | 192 | 3.5 | 7.8 | 0.00 | 0.00 | 0.00 | 57 | 1015.0 |
| 20260505031504 | 46 | 167 | 4.3 | 8.7 | 0.00 | 0.00 | 0.00 | 56 | 1014.7 |
| 20260505030007 | 46 | 153 | 4.3 | 7.0 | 0.00 | 0.00 | 0.00 | 55 | 1014.5 |
| 20260505024528 | 47 | 159 | 2.6 | 6.1 | 0.00 | 0.00 | 0.00 | 54 | 1014.4 |
| 20260505023015 | 48 | 167 | 0.0 | 7.0 | 0.00 | 0.00 | 0.00 | 50 | 1014.2 |
| 20260505021541 | 48 | 173 | 4.3 | 6.1 | 0.00 | 0.00 | 0.00 | 52 | 1014.1 |
| 20260505020006 | 48 | 148 | 6.1 | 8.7 | 0.00 | 0.00 | 0.00 | 51 | 1014.0 |